Regional Weather Roundup
Issued by NWS

Home | Current Version | Previous Version | Text Only | Print | Product List | Glossary Off
Versions: 1 2 3 4 5 6 7 8 9 10 11 12 13 14 15 16 17 18 19 20 21 22 23 24 25 26 27 28 29 30 31 32 33 34 35 36 37 38 39 40 41 42 43 44 45 46 47 48 49 50

000
ASUS43 KMPX 042310
RWRMN
WEATHER ROUNDUP FOR MINNESOTA
NATIONAL WEATHER SERVICE TWIN CITIES/CHANHASSEN MN
500 PM CST WED MAR 04 2015


NOTE: "FAIR" INDICATES FEW OR NO CLOUDS BELOW 12,000 FEET WITH NO
SIGNIFICANT WEATHER AND/OR OBSTRUCTIONS TO VISIBILITY. N/A MEANS
CURRENT SKY AND/OR WEATHER CONDITIONS ARE NOT AVAILABLE.

MNZ060>063-068>070-050000-
   Twin Cities Metro

CITY           SKY/WX    TMP DP  RH WIND       PRES   REMARKS
$$
MNZ001>005-007-008-013>017-022>024-027-028-050000-
   Northwest Minnesota

CITY           SKY/WX    TMP DP  RH WIND       PRES   REMARKS
THIEF RVR FALL CLOUDY    -2  -2 100 NW15      30.30R WCI -22
FOSSTON        CLOUDY    -2  -9  71 NW12      30.29R HAZE    WCI -20
DETROIT LAKES  MOSUNNY    3  -8  60 NW13G20   30.28R WCI -14
PARK RAPIDS    PTSUNNY    0 -11  60 NW15      30.24R WCI -20
MAHNOMEN       FAIR       1  -9  64 NW15      30.29R WCI -19
$$
MNZ006-009>011-018-025>026-050000-
   North Central Minnesota

CITY           SKY/WX    TMP DP  RH WIND       PRES   REMARKS
FLAG ISLAND    CLEAR      1 -11  55 NW13      30.22R WCI -16
WASKISH        CLEAR      1 -11  55 W12       30.24R WCI -15
LONGVILLE      MOSUNNY    0 -13  55 W10       30.24R WCI -17
GRAND RAPIDS   MOCLDY     0 -13  55 W17G23    30.18R WCI -21
COOK           PTCLDY     1 -13  51 NW10      30.17R WCI -14
WALKER         MOCLDY    -1 -15  52 W12       30.24R WCI -19
$$
MNZ012-019>021-037-050000-
   Northeast Minnesota

CITY           SKY/WX    TMP DP  RH WIND       PRES   REMARKS
GRAND MARAIS     N/A      5 -13  43 NW7       30.17R WCI  -7
$$
MNZ029>031-032-039>041-046>048-054>057-064-050000-
   West Central Minnesota

CITY           SKY/WX    TMP DP  RH WIND       PRES   REMARKS
WHEATON        MOSUNNY    0 -11  60 NW16      30.37S WCI -21
ALEXANDRIA     MOSUNNY    0 -12  57 NW16      30.28R WCI -20
ELBOW LAKE     PTSUNNY    2  -8  62 NW15      30.31R WCI -17
WADENA         MOSUNNY   -2  -9  71 NW12G18   30.26R WCI -20
APPLETON       MOSUNNY    3  -8  60 NW16      30.36R WCI -16
WILLMAR        PTSUNNY    3  -6  66 NW23      30.32R HAZE    WCI -19
$$
MNZ033>034-036-042>043-049>051-058-059-050000-
   Central Minnesota

CITY           SKY/WX    TMP DP  RH WIND       PRES   REMARKS
LONG PRAIRIE   FAIR       1 -11  55 W14       30.27R WCI -17
MAPLE LAKE     PTSUNNY    6  -6  55 W14G23    30.29R WCI -11
$$
MNZ037-044-045-052-053-050000-
   East Central Minnesota

CITY           SKY/WX    TMP DP  RH WIND       PRES   REMARKS
MORA           CLEAR      7  -9  47 N10G16    30.26R WCI  -8
CAMBRIDGE      CLEAR      7  -8  51 W15G21    30.25R WCI -11
RUSH CITY      MOCLDY     6 -10  48 NW9G16    30.25R WCI  -8
CLOQUET        CLEAR      3 -18  36 W15G24    30.17R WCI -15
$$
MNZ071>073-080-081-089-090-097-098-050000-
   Southwest Minnesota

CITY           SKY/WX    TMP DP  RH WIND       PRES   REMARKS
MARSHALL       MOSUNNY    5  -9  51 NW21G28   30.33S WCI -16
WORTHINGTON    MOSUNNY    7  -6  56 NW20G25   30.29R WCI -13
$$
MNZ065>067-074>077-082>085-091>093-050000-
   South Central Minnesota

CITY           SKY/WX    TMP DP  RH WIND       PRES   REMARKS
MANKATO        PTSUNNY    9  -2  61 NW16G26   30.29R WCI  -9
FAIRMONT       CLOUDY    10  -2  56 NW20      30.27R WCI  -8
OWATONNA       MOSUNNY   10  -2  56 W24       30.25R WCI -10
$$
MNZ078>079-086>088-094>096-050000-
   Southeast Minnesota

CITY           SKY/WX    TMP DP  RH WIND       PRES   REMARKS
WINONA         PTCLDY    14  -2  48 NW16G22   30.27R WCI  -2
AUSTIN         LGT SNOW  10   3  72 NW16      30.23S WCI  -7
$$
ABBREVIATIONS USED IN REMARKS
   TC - TEMPERATURES IN CELSIUS
  WCI - WIND CHILL INDEX
   HX - HEAT INDEX
  VSB - VISIBILITY
$$



USA.gov is the U.S. government's official web portal to all federal, state and local government web resources and services.